Regional Weather Roundup
Issued by NWS

Home | Current Version | Previous Version | Graphics & Text | Print | Product List | Glossary On
Versions: 1 2 3 4 5 6 7 8 9 10 11 12 13 14 15 16 17 18 19 20 21 22 23 24 25 26 27 28 29 30 31 32 33 34 35 36 37 38 39 40 41 42 43 44 45 46 47 48 49 50
129
ASUS45 KTFX 240410
RWRMT
MONTANA REGIONAL WEATHER ROUNDUP
NATIONAL WEATHER SERVICE GREAT FALLS MT
900 PM MST TUE JAN 23 2018

NOTE: "FAIR" INDICATES FEW OR NO CLOUDS BELOW 12000 FEET WITH NO
SIGNIFICANT WEATHER AND/OR OBSTRUCTIONS TO VISIBILITY.

MTZ001>007-043-240500-
WEST OF THE DIVIDE

CITY           SKY/WX    TMP DP  RH WIND       PRES   REMARKS
KALISPELL      CLOUDY    29  25  85 CALM      30.00F
MISSOULA       CLOUDY    31  23  72 N3        30.02F
BUTTE          FAIR      18  10  71 VRB6      30.04F WCI  10
MULLAN PASS    LGT SNOW  25  24  96 VRB7      29.89F VSB 3/4 WCI  17
ANACONDA         N/A     28  14  54 SE17G26   30.00F WCI  16
DEER LODGE       N/A     28  16  59 W10       30.01F WCI  19
EUREKA           N/A     34  27  75 MISG      29.98F
HAMILTON         N/A     36  21  55 SE15G24   30.03F WCI  26
PLAINS           N/A     28  24  85 CALM      30.00F
RONAN            N/A     28  27  93 N3        30.00F
THOMPSON FALLS   N/A     35  30  82 E5        30.04
$$

MTZ008-052>055-240500-
SOUTHWEST MONTANA

CITY           SKY/WX    TMP DP  RH WIND       PRES   REMARKS
BOZEMAN        FAIR      12   5  73 SE3       30.08F
DILLON         FAIR      20  12  71 S6        30.10S WCI  12
ENNIS          MOCLDY    27  14  59 S20       30.16S WCI  13
W YELLOWSTONE  FLURRIES  19  18  93 S8        30.20F WCI   9
THREE FORKS      N/A     32  15  49 SW20      30.05F WCI  20
TWIN BRIDGES     N/A     24  12  60 SE2       30.07F
$$

MTZ009-010-012-014-046-048-049-054-240500-
EAST SLOPES AND CENTRAL MONTANA

CITY           SKY/WX    TMP DP  RH WIND       PRES   REMARKS
CUT BANK       FAIR      26  18  71 S3        29.89F
GREAT FALLS    FAIR      33  14  45 S14       29.96F WCI  23
MALMSTROM AFB  FAIR      32  16  51 SW17      29.96F WCI  21
HELENA         FAIR      24  18  77 NW3       30.02F
AUGUSTA        FAIR      27  17  65 SE13      29.91F WCI  16
BOWMANS CRNR   FAIR      27  16  62 S22       29.91F WCI  13
CHOTEAU          N/A     32  16  51 S10       29.93F WCI  24
FAIRFIELD      MOCLDY    32  16  51 S14       29.93F WCI  22
POWER          MOCLDY    30  17  59 S17       29.93F WCI  18
RAYNESFORD     MOCLDY    35  12  38 SW12      29.96F WCI  27
ULM            MOCLDY    34  16  47 SW12      29.97F WCI  26
WHITE SULPHUR    N/A     23  12  63 S15       30.01F WCI  10
$$

MTZ011-013-016-021-045-047-050-051-240500-
NORTH CENTRAL MONTANA

CITY           SKY/WX    TMP DP  RH WIND       PRES   REMARKS
HAVRE          FAIR      22  18  85 NE6       29.96F WCI  14
LEWISTOWN      FAIR      29  14  53 W5        29.99F
N BAR RANCH    FAIR      23  10  58 W6        30.01F WCI  16
CHINOOK          N/A     19  16  86 E9        29.99F WCI   9
DENTON         FAIR      23  17  77 MISG      29.95F
GEYSER         FAIR      29  15  55 W14       29.96F WCI  18
GRASS RANGE    MOCLDY    25  16  69 CALM      29.96F
STANFORD       FAIR      29  16  56 SW17      29.96F WCI  17
WINIFRED       MOCLDY    30  16  55 SW3       29.97F
$$

MTZ017>020-022>027-061-062-240500-
NORTHEAST MONTANA

CITY           SKY/WX    TMP DP  RH WIND       PRES   REMARKS
GLASGOW        FAIR      12   8  84 E8        30.05F WCI   0
GLENDIVE       FAIR      18  15  88 S7        30.11S WCI   9
JORDAN           N/A     21  15  78 CALM      30.06F
MALTA          CLEAR      7   3  85 CALM      30.04F
SIDNEY         FAIR      18  14  84 S7        30.10S WCI   9
WOLF POINT     FAIR       8   4  83 CALM      30.10S
PLENTYWOOD       N/A     16  14  93 CALM      30.04F
POPLAR           N/A     18  12  79 W3        30.11S
SCOBEY           N/A     13   6  73 CALM      30.02S
$$

MTZ028>42-056>058-240500-
SOUTHCENTRAL AND SOUTHEAST MONTANA

CITY           SKY/WX    TMP DP  RH WIND       PRES   REMARKS
BAKER          FAIR      20  15  81 CALM      30.11F
BILLINGS       FAIR      31  15  52 W16       30.05F WCI  20
LIVINGSTON     FAIR      31  17  56 SW38G48   30.03F WCI  15
MILES CITY     FAIR      20  15  81 S8        30.11F WCI  10
BIG TIMBER     CLEAR     28  14  54 W12       30.06F WCI  18
EKALAKA          N/A     27  13  55 CALM      30.06F
FORSYTH          N/A     28  16  59 CALM      30.10S
HARLOWTON      FAIR      25  15  64 W16       30.02F WCI  12
LAUREL           N/A     32  14  47 SW23      30.06F WCI  19
ROUNDUP          N/A     27  12  53 S10       29.95F WCI  17
$$

REGIONAL REPORTS...DAKOTAS

CITY           SKY/WX    TMP DP  RH WIND       PRES   REMARKS
WILLISTON      FAIR      13  11  92 S3        30.09S
MINOT          FAIR      17  13  84 S3        30.08F
DICKINSON      FAIR      21  17  84 W12       30.07F WCI   9
BEACH          FAIR      23  18  80 SW10      30.13S WCI  12
CROSBY         FAIR      14  12  92 SW15      30.06S WCI  -1
TIOGA          FAIR      14  14 100 SW10      30.08S WCI   1
WATFORD CITY   FAIR      16  14  93 SW5       30.09S
BISMARCK       FAIR      14  12  92 E3        30.15S
GRAND FORKS    CLOUDY    24  19  81 W5        30.15R
FARGO          CLOUDY    23  19  85 NW9       30.17R WCI  13
BUFFALO SD       N/A     25  16  68 W6        30.06S WCI  18
RAPID CITY     FAIR      27  18  69 SW6       30.18S WCI  20
$$

REGIONAL REPORTS...WYOMING/IDAHO/WASHINGTON

CITY           SKY/WX    TMP DP  RH WIND       PRES   REMARKS
GILLETTE       FAIR      19  11  70 S12       30.12F WCI   7
SHERIDAN       FAIR      26  12  55 S7        30.08F WCI  18
BUFFALO WY     FAIR      22   8  55 SW6       30.09F WCI  14
CODY           FAIR      29  13  51 VRB5      30.12S
YELLOWSTONE LA   N/A     10   8  92 CALM      30.21S
IDAHO FALLS    FAIR      23  22  96 N5        30.27S
SALMON         CLOUDY    24  20  84 CALM      30.18F
BOISE          MOCLDY    38  29  70 S7        30.14F
SPOKANE        LGT SNOW  33  33 100 SE12      29.94F FOG     WCI  24
$$

REGIONAL REPORTS...ALBERTA

CITY           SKY/WX    TMP DP  RH WIND       PRES   REMARKS
CALGARY        PTCLDY    23  14  68 S7        29.75F WCI  15
EDMONTON       CLEAR     18  10  73 E5        29.81F
FORT MCMURRAY  CLOUDY    14  12  92 E10       29.97S WCI   1
HIGH LEVEL     FLURRIES  10   9  92 S3        29.91S
LETHBRIDGE     MOCLDY    28  21  74 S9        29.86F WCI  20
LLOYDMINSTER   FOG       10  10 100 SE6       29.92S VSB 1/2 WCI   1
MEDICINE HAT   CLEAR     25  19  80 S3        29.90F
MILK RIVER       N/A     28  21  74 S10         N/A  WCI  19
ONEFOUR          N/A     16  12  86 E13         N/A  WCI   2
PEACE RIVER    MOCLDY     9   5  85 N2        29.80F
PINCHER CREEK  MOCLDY    32  21  64 W20       29.82F WCI  20
WATERTON GATE    N/A     34  19  55 SW20G31     N/A  WCI  22
$$

REGIONAL REPORTS...SASKATCHEWAN

CITY           SKY/WX    TMP DP  RH WIND       PRES   REMARKS
CORONACH         N/A     14  10  85 SE3         N/A
CYPRESS HILLS    N/A     25  14  63 S6          N/A  WCI  18
ESTEVAN        CLEAR     12   9  85 SW9       30.04F WCI   0
MOOSE JAW        N/A     19  16  86 W3          N/A
PRINCE ALBERT  FLURRIES  10   7  85 E8        30.07F WCI  -1
REGINA         CLEAR     10   9  92 SE8       30.01S FOG     WCI  -1
ROCKGLEN         N/A     16  12  86 W10         N/A  WCI   3
SASKATOON      CLOUDY    19  19 100 NE5       30.03F
SWIFT CURRENT  CLEAR     19  14  79 SW12      29.93F WCI   7
VAL MARIE        N/A      0  -4  85 E2          N/A
$$




USA.gov is the U.S. government's official web portal to all federal, state and local government web resources and services.